Weather History for Indian Springs, NV

Change the Weather History Date:

Tuesday, December 11, 2012

  Actual Average (KDRA) Record (KDRA)
Temperature  
Mean Temperature 43 °F -  
Max Temperature 55 °F 53 °F 68 °F (2010)
Min Temperature 31 °F 32 °F 25 °F (1998)
Degree Days  
Heating Degree Days 22    
Moisture  
Dew Point 20 °F    
Average Humidity 45    
Maximum Humidity 61    
Minimum Humidity 27    
Precipitation  
Precipitation 0.00 in - - ()
Sea Level Pressure  
Sea Level Pressure 30.02 in    
Wind  
Wind Speed 3 mph (SSE)    
Max Wind Speed 14 mph    
Max Gust Speed -    
Visibility 10 miles    
Events      
Averages and records for this station are not official NWS values.
T = Trace of Precipitation, MM = Missing Value Source: NWS Daily Summary

Daily Weather History Graph

Daily Weather History Graph

Search for Another Location

Airport:

Trip Planner

Search our weather history database for the weather conditions in past years. The results will help you decide how hot, cold, wet, or windy it might be!

Date:

Astronomy

Dec. 11, 2012 Rise Set
Actual Time 6:45 AM PST 4:27 PM PST
Civil Twilight 6:16 AM PST 4:56 PM PST
Nautical Twilight 5:44 AM PST 5:28 PM PST
Astronomical Twilight 5:12 AM PST 5:59 PM PST
Moon 4:46 AM PST (12/11) 3:09 PM PST (12/11)
Length of Visible Light 10h 39m
Length of Day
9h 42m
Waning Crescent, 4% of the Moon is Illuminated
Dec 11
Waning Crescent
Dec 13
New
Dec 19
First Quarter
Dec 28
Full
Jan 4
Last Quarter

Hourly Weather History & Observations

Time (PST) Temp. Windchill Dew Point Humidity Pressure Visibility Wind Dir Wind Speed Gust Speed Precip Events Conditions
12:58 AM 34.7 °F - 20.8 °F 57% 30.13 in 10.0 mi West 2.3 mph - N/A   Clear
1:58 AM 33.3 °F 30.2 °F 19.8 °F 58% 30.12 in 10.0 mi WSW 3.5 mph - N/A   Clear
2:58 AM 32.7 °F - 19.9 °F 59% 30.12 in 10.0 mi Calm Calm - N/A   Clear
3:58 AM 32.2 °F - 19.6 °F 60% 30.12 in 10.0 mi East 2.3 mph - N/A   Clear
4:58 AM 32.9 °F - 19.2 °F 57% 30.11 in 10.0 mi Variable 1.2 mph - N/A   Clear
5:58 AM 31.6 °F - 19.2 °F 60% 30.12 in 10.0 mi Calm Calm - N/A   Clear
6:58 AM 31.1 °F 26.4 °F 19.0 °F 61% 30.12 in 10.0 mi West 4.6 mph - N/A   Clear
7:58 AM 32.9 °F - 18.7 °F 56% 30.12 in 10.0 mi Calm Calm - N/A   Clear
8:58 AM 36.9 °F - 21.4 °F 54% 30.11 in 10.0 mi Calm Calm - N/A   Clear
9:58 AM 43.0 °F - 22.5 °F 44% 30.12 in 10.0 mi Calm Calm - N/A   Clear
10:58 AM 49.6 °F - 21.2 °F 33% 30.09 in 10.0 mi Calm Calm - N/A   Clear
11:58 AM 53.1 °F - 21.4 °F 29% 30.06 in 10.0 mi Calm Calm - N/A   Clear
12:58 PM 55.9 °F - 21.7 °F 27% 30.01 in 10.0 mi ESE 5.8 mph - N/A   Clear
1:58 PM 55.9 °F - 21.9 °F 27% 29.98 in 10.0 mi East 9.2 mph - N/A   Clear
2:58 PM 55.2 °F - 21.2 °F 27% 29.95 in 10.0 mi ESE 10.4 mph - N/A   Clear
3:58 PM 53.1 °F - 21.7 °F 29% 29.95 in 10.0 mi East 13.8 mph - N/A   Clear
4:58 PM 48.0 °F - 20.5 °F 34% 29.94 in 10.0 mi East 9.2 mph - N/A   Clear
5:58 PM 47.1 °F - 21.4 °F 36% 29.94 in 10.0 mi North 4.6 mph - N/A   Clear
6:58 PM 43.9 °F 42.3 °F 19.9 °F 38% 29.94 in 10.0 mi South 3.5 mph - N/A   Clear
7:58 PM 42.3 °F - 20.1 °F 41% 29.93 in 10.0 mi East 2.3 mph - N/A   Clear
8:58 PM 37.2 °F 33.6 °F 17.8 °F 45% 29.92 in 10.0 mi WNW 4.6 mph - N/A   Clear
9:58 PM 38.3 °F - 19.4 °F 47% 29.90 in 10.0 mi SSW 2.3 mph - N/A   Clear
10:58 PM 35.6 °F 31.7 °F 18.5 °F 50% 29.89 in 10.0 mi West 4.6 mph - N/A   Clear
11:58 PM 38.1 °F 34.6 °F 19.0 °F 46% 29.87 in 10.0 mi West 4.6 mph - N/A   Clear